Westminster, MD

12:22 AM EST on December 08, 2019 (GMT -0500)
Carroll County Regional-Poage

Weather History for KDMW - November, 2019

Change the Weather History Date:

Tuesday, November 12, 2019

  Actual Average (WUND) Record (WUND)
Temperature  
Mean Temperature 48 °F -  
Max Temperature 60 °F - - (-1)
Min Temperature 37 °F - - (-1)
Degree Days  
Heating Degree Days 16    
Moisture  
Dew Point 36 °F    
Average Humidity 68    
Maximum Humidity 94    
Minimum Humidity 48    
Precipitation  
Precipitation 0.10 in - - ()
Sea Level Pressure  
Sea Level Pressure 29.87 in    
Wind  
Wind Speed 9 mph (WNW)    
Max Wind Speed 17 mph    
Max Gust Speed 24 mph    
Visibility 10 miles    
Events Rain    
Averages and records for this station are not official NWS values.
T = Trace of Precipitation, MM = Missing Value Source: NWS Daily Summary

Daily Weather History Graph

Daily Weather History Graph

Search for Another Location

Airport or City:

Astronomy

Nov. 12, 2019 Rise Set
Actual Time 6:48 AM EST 4:55 PM EST
Civil Twilight 6:19 AM EST 5:23 PM EST
Nautical Twilight 5:47 AM EST 5:56 PM EST
Astronomical Twilight 5:15 AM EST 6:27 PM EST
Moon 5:21 PM EST (11/12) 6:38 AM EST (11/12)
Length of Visible Light 11h 03m
Length of Day
10h 06m
Full, 100% of the Moon is Illuminated
Nov 12
Full
Nov 19
Last Quarter
Nov 26
New
Dec 4
First Quarter
Dec 12
Full

Hourly Weather History & Observations

Time (EST) Temp. Windchill Dew Point Humidity Pressure Visibility Wind Dir Wind Speed Gust Speed Precip Events Conditions
12:00 AM 60.8 °F - 44.6 °F 55% 29.76 in 10.0 mi SSW 11.5 mph - N/A   Clear
12:20 AM 60.8 °F - 44.6 °F 55% 29.76 in 10.0 mi SW 9.2 mph 17.3 mph N/A   Clear
12:40 AM 59.0 °F - 44.6 °F 59% 29.74 in 10.0 mi SSW 6.9 mph - N/A   Clear
1:00 AM 59.0 °F - 44.6 °F 59% 29.75 in 10.0 mi SSW 8.1 mph - N/A   Clear
1:20 AM 57.2 °F - 44.6 °F 63% 29.74 in 10.0 mi South 6.9 mph - N/A   Scattered Clouds
1:40 AM 57.2 °F - 44.6 °F 63% 29.72 in 10.0 mi SW 5.8 mph - N/A   Scattered Clouds
2:00 AM 57.2 °F - 44.6 °F 63% 29.74 in 10.0 mi SW 8.1 mph - N/A   Scattered Clouds
2:20 AM 57.2 °F - 44.6 °F 63% 29.74 in 10.0 mi SW 6.9 mph - N/A Rain Light Rain
3:00 AM 55.4 °F - 46.4 °F 72% 29.74 in 10.0 mi SW 5.8 mph - N/A Rain Light Rain
3:20 AM 55.4 °F - 46.4 °F 72% 29.74 in 10.0 mi SW 4.6 mph - N/A Rain Rain
3:40 AM 53.6 °F - 46.4 °F 77% 29.74 in 10.0 mi WSW 4.6 mph - 0.01 in Rain Light Rain
4:00 AM 53.6 °F - 48.2 °F 82% 29.76 in 10.0 mi WSW 8.1 mph - 0.01 in Rain Light Rain
4:20 AM 51.8 °F - 48.2 °F 88% 29.76 in 10.0 mi West 6.9 mph - 0.01 in Rain Rain
4:40 AM 51.8 °F - 48.2 °F 88% 29.77 in 10.0 mi Calm Calm - 0.03 in Rain Rain
5:00 AM 51.8 °F - 48.2 °F 88% 29.78 in 10.0 mi WSW 6.9 mph - 0.01 in Rain Rain
5:40 AM 50.0 °F - 48.2 °F 94% 29.79 in 10.0 mi West 6.9 mph - 0.05 in Rain Light Rain
6:00 AM 48.2 °F - 46.4 °F 93% 29.81 in 10.0 mi WNW 13.8 mph 24.2 mph N/A Rain Light Rain
6:40 AM 46.4 °F 40.7 °F 42.8 °F 87% 29.84 in 10.0 mi WNW 12.7 mph - 0.01 in   Overcast
7:00 AM 46.4 °F 41.1 °F 41.0 °F 81% 29.85 in 10.0 mi WNW 11.5 mph - N/A   Overcast
7:20 AM 44.6 °F 39.2 °F 39.2 °F 81% 29.87 in 10.0 mi WNW 10.4 mph - N/A   Overcast
7:40 AM 44.6 °F 39.7 °F 39.2 °F 81% 29.88 in 10.0 mi WNW 9.2 mph 18.4 mph N/A   Overcast
8:20 AM 44.6 °F - 35.6 °F 71% 29.91 in 10.0 mi Calm Calm - N/A   Overcast
8:40 AM 42.8 °F 40.1 °F 33.8 °F 70% 29.92 in 10.0 mi NNW 4.6 mph - N/A   Overcast
9:00 AM 42.8 °F 36.2 °F 33.8 °F 70% 29.94 in 10.0 mi NW 12.7 mph 21.9 mph N/A   Mostly Cloudy
9:20 AM 41.0 °F 32.5 °F 32.0 °F 70% 29.95 in 10.0 mi NW 17.3 mph 24.2 mph N/A   Overcast
9:40 AM 39.2 °F 31.6 °F 32.0 °F 75% 29.96 in 10.0 mi NW 12.7 mph 23.0 mph N/A   Mostly Cloudy
10:20 AM 39.2 °F 32.0 °F 30.2 °F 70% 29.98 in 10.0 mi NW 11.5 mph 17.3 mph N/A   Scattered Clouds
10:40 AM 39.2 °F 33.6 °F 28.4 °F 65% 29.99 in 10.0 mi NW 8.1 mph - N/A   Scattered Clouds
11:00 AM 39.2 °F 32.0 °F 28.4 °F 65% 29.99 in 10.0 mi NW 11.5 mph 18.4 mph N/A   Clear
11:20 AM 39.2 °F 32.0 °F 26.6 °F 61% 29.99 in 10.0 mi NW 11.5 mph 18.4 mph N/A   Scattered Clouds
11:40 AM 39.2 °F 32.5 °F 26.6 °F 61% 30.00 in 10.0 mi NW 10.4 mph 18.4 mph N/A   Clear
12:00 PM 37.4 °F 31.4 °F 24.8 °F 60% 29.99 in 10.0 mi NNW 8.1 mph - N/A   Clear
12:20 PM 37.4 °F 30.8 °F 24.8 °F 60% 29.99 in 10.0 mi NW 9.2 mph - N/A   Clear
12:40 PM 39.2 °F 33.0 °F 24.8 °F 56% 29.98 in 10.0 mi NW 9.2 mph 16.1 mph N/A   Clear
1:00 PM 37.4 °F 30.8 °F 21.2 °F 52% 29.98 in 10.0 mi NNW 9.2 mph 20.7 mph N/A   Clear
1:20 PM 37.4 °F 30.8 °F 21.2 °F 52% 29.99 in 10.0 mi NNW 9.2 mph 17.3 mph N/A   Scattered Clouds
1:40 PM 37.4 °F 30.8 °F 21.2 °F 52% 29.98 in 10.0 mi NNW 9.2 mph 17.3 mph N/A   Scattered Clouds
2:00 PM 37.4 °F 30.3 °F 21.2 °F 52% 29.99 in 10.0 mi NNW 10.4 mph 19.6 mph N/A   Scattered Clouds
2:20 PM 39.2 °F 31.2 °F 21.2 °F 49% 29.98 in 10.0 mi WNW 13.8 mph 24.2 mph N/A   Scattered Clouds
3:00 PM 37.4 °F 30.8 °F 21.2 °F 52% 29.99 in 10.0 mi NNW 9.2 mph 17.3 mph N/A   Mostly Cloudy
3:20 PM 37.4 °F 30.3 °F 19.4 °F 48% 30.00 in 10.0 mi NW 10.4 mph 23.0 mph N/A   Overcast